Tracking 31027 objects as of 19-Jul-2025
HD Live streaming from Space Station
objects crossing your sky now

DELTA 1 R/B(2)

Track DELTA 1 R/B(2) now!


NORAD ID: 1318
Int'l Code: 1965-028B
Perigee: 1,461.0 km
Apogee: 37,018.8 km
Inclination: 18.2 °
Period: 679.8 minutes
Semi major axis: 25610 km
RCS: 0.7392 m2 (medium)
Launch date: April 6, 1965
Source: United States (US)
Launch site: AIR FORCE EASTERN TEST RANGE (AFETR)

Note: This is a ROCKET BODY
Your satellite tracking list
COSMOS 2502
Track 1 satellite(s)




NASA's NSSDC Master Catalog

Two Line Element Set (TLE):
1 01318U 65028B   25198.09985150 -.00000107  00000-0  00000-0 0  9995
2 01318  18.1816 357.5356 6941937 340.9202 264.4076  2.11819631100229
Source of the keplerian elements: AFSPC